RH
73 75 76 75 82 85 81 80 80 79 79 79 79 77 77 80 68 64 80 81 72 79 86 85 91 99 100 99 100 100 94 85 79 75 67 57 48 41 31 26 32 40 47 56 62 64 63 61 58 56 54 52 49 46 42 39 35 33 29 28 28 28 30 31 31 32 32 32 33 34 33 34 35 36 37 40 41 42 44 46 48 52 56 61 66 68 67
78 74 70 76 86 84 79 79 77 77 80 79 78 79 78 74 69 70 70 66 73 81 78 80 91 98 100 99 96 93 94 97 92 86 88 77 59 51 36 23 27 31 31 39 47 54 59 59 58 57 54 53 51 49 47 44 42 40 37 34 31 28 26 25 25 26 26 27 26 26 27 26 26 26 27 28 30 32 36 40 43 46 50 55 61 65 67
76 68 63 70 79 79 77 76 73 75 77 78 81 80 71 62 62 69 68 65 74 74 70 79 85 88 97 97 93 93 95 93 75 65 80 85 70 60 42 23 22 23 21 23 29 39 50 53 54 53 50 49 47 45 45 43 42 42 41 40 38 36 33 29 27 25 23 23 22 21 22 21 21 21 21 21 22 23 24 27 32 38 45 52 59 65 69
66 66 66 68 71 69 68 70 70 71 69 72 79 76 72 74 77 83 83 75 73 73 75 82 76 73 86 96 99 98 93 88 75 70 83 83 66 52 34 19 20 23 25 28 29 35 43 48 50 50 48 45 42 39 38 35 35 35 36 38 38 38 38 37 35 33 29 26 24 21 20 19 18 18 18 19 19 19 20 20 21 25 29 38 46 54 62
56 63 67 67 67 60 57 59 60 64 65 65 65 63 66 69 72 81 80 68 69 75 76 83 84 82 89 100 102 96 94 98 91 82 83 70 46 32 21 16 21 24 28 33 34 37 41 43 46 45 43 40 35 31 29 26 26 26 27 32 34 35 37 37 38 38 36 34 31 28 26 23 21 20 18 17 17 16 17 18 18 19 19 22 27 31 38
51 58 63 63 60 50 48 50 45 47 55 55 55 64 67 55 51 66 74 68 72 76 75 84 93 97 99 99 94 86 85 89 77 62 59 47 26 19 17 15 19 22 24 27 27 31 34 36 37 36 33 30 25 21 20 18 19 20 21 24 28 31 33 35 36 37 37 38 37 35 34 31 29 28 26 24 22 18 17 16 15 16 17 17 19 20 22
52 53 51 49 49 46 46 47 41 40 46 48 51 60 61 47 38 46 56 63 67 70 77 86 91 97 94 78 68 61 53 54 52 44 40 27 14 20 24 17 15 18 20 21 21 23 25 26 27 25 22 20 18 16 16 15 16 16 17 18 20 22 24 26 28 30 32 34 35 36 36 36 35 35 33 32 31 27 25 23 19 18 16 15 16 17 18
55 49 41 40 47 48 44 43 45 45 45 47 50 52 49 44 39 38 46 61 66 64 71 76 73 75 68 48 40 37 27 29 34 33 34 28 22 32 34 23 18 18 18 18 18 18 19 19 20 20 18 18 17 16 16 15 16 16 15 16 16 16 17 17 18 19 20 22 24 25 28 30 31 33 33 34 34 33 32 30 28 26 23 19 17 15 16
57 47 39 42 46 46 47 47 48 48 47 50 53 54 54 50 42 37 44 60 66 60 62 66 59 55 53 48 49 40 21 20 25 27 34 33 26 28 25 19 20 22 20 20 19 17 17 16 16 17 18 18 17 17 17 16 16 16 15 15 14 13 14 13 13 13 13 12 13 13 14 16 16 19 22 24 27 29 30 31 32 32 31 29 26 21 18
61 51 43 42 38 41 51 51 47 49 51 52 53 54 59 54 39 30 39 58 65 60 60 60 55 55 58 63 72 62 34 23 28 29 29 26 21 22 24 24 25 22 19 17 15 13 13 12 13 14 15 16 16 16 17 16 15 15 14 13 13 12 12 11 10 10 9 8 8 8 7 7 7 7 8 9 12 15 17 20 24 27 30 32 33 32 28
60 53 45 40 37 43 51 50 49 50 51 55 58 55 56 55 41 26 31 50 61 65 70 65 58 67 70 64 73 72 44 29 36 42 48 53 45 31 24 23 20 16 14 12 8 8 9 8 10 11 11 14 14 13 15 14 13 13 11 10 9 8 7 7 6 6 5 5 5 4 4 4 4 4 5 5 6 6 7 9 11 14 19 23 27 31 33
56 55 49 42 42 49 51 48 49 49 51 59 61 53 49 51 44 29 27 41 52 62 77 75 64 71 73 64 68 62 35 27 34 40 57 70 62 51 45 32 17 9 9 8 6 6 7 5 7 9 9 11 11 11 11 10 9 9 7 6 6 5 4 5 4 4 4 4 4 4 3 4 4 5 7 10 11 11 12 12 11 11 13 15 18 22 26
54 57 53 45 46 51 49 46 48 49 53 59 58 52 49 46 42 34 28 36 45 52 64 66 64 73 69 53 50 42 27 33 39 31 33 39 38 45 48 29 11 7 8 7 7 7 7 6 6 7 7 7 7 7 7 6 6 5 5 4 4 4 4 4 4 4 4 3 3 3 3 3 4 6 10 16 21 23 23 23 22 22 21 21 21 21 23
53 52 51 44 43 48 47 47 50 50 53 55 50 48 45 41 44 44 36 35 39 43 49 53 62 77 67 40 35 37 30 39 53 51 50 50 44 43 38 19 8 8 7 7 8 7 7 7 6 6 6 6 6 6 5 5 5 4 4 5 4 4 4 4 4 4 3 3 3 3 3 3 4 5 8 15 22 29 32 33 32 32 32 31 30 29 29
52 52 51 44 43 49 49 49 51 52 54 56 53 52 51 48 52 53 43 35 31 35 54 69 75 83 68 35 30 41 38 45 71 81 75 72 69 65 59 44 24 9 6 8 8 7 8 7 7 7 7 6 6 6 5 5 5 5 5 4 4 4 4 4 4 4 3 3 3 3 3 3 3 4 5 8 14 23 32 37 38 37 36 35 35 36 36
50 45 47 47 48 52 52 53 58 59 56 55 57 61 64 62 61 57 49 38 24 25 57 87 92 91 80 45 23 31 40 51 70 73 59 60 72 75 68 49 23 7 7 9 7 7 9 7 7 7 6 6 6 5 5 5 4 4 5 4 4 4 4 4 4 3 3 3 3 3 3 3 3 3 3 4 6 11 19 29 37 40 39 37 36 38 40
55 47 48 52 53 54 54 54 59 59 55 55 58 62 70 73 68 65 62 48 26 21 47 82 94 94 93 74 46 43 57 64 67 66 59 60 65 60 44 28 13 8 8 7 6 8 8 6 7 7 6 6 6 4 5 5 4 5 4 4 4 4 4 4 4 4 4 4 4 4 3 3 4 3 3 3 3 4 8 15 26 36 42 42 39 38 40
60 54 55 56 55 56 57 56 56 54 52 58 62 64 75 81 74 71 70 55 35 26 37 69 94 93 91 91 77 65 74 82 81 82 79 68 59 48 35 21 12 9 8 6 6 7 6 6 7 6 5 6 5 5 5 4 4 5 4 4 5 4 4 5 4 5 5 4 5 5 4 4 4 4 4 3 3 4 4 6 12 22 33 42 44 42 41
63 57 59 62 59 59 61 58 56 52 50 57 65 68 75 81 75 73 71 58 44 34 31 57 91 93 81 86 86 77 81 91 93 93 92 84 75 65 50 33 20 13 10 8 6 6 6 6 6 5 6 6 5 5 5 4 4 5 4 5 5 4 5 5 5 5 6 5 6 6 5 6 6 5 5 5 4 4 4 3 5 9 18 30 39 44 44
67 60 63 68 65 62 61 59 56 52 48 53 65 71 74 77 75 74 73 63 49 42 41 59 88 94 84 84 87 88 92 98 99 98 96 90 82 70 54 37 26 20 17 13 10 8 7 6 6 6 6 5 5 5 5 4 5 5 4 5 5 5 5 5 5 6 6 6 7 7 6 7 7 6 7 6 6 6 5 4 4 4 7 14 24 33 41
68 62 62 67 66 62 62 62 58 51 45 46 57 67 74 77 73 73 77 68 51 48 60 74 86 93 95 92 89 93 99 100 99 98 93 85 78 69 56 43 34 29 26 23 20 17 13 9 8 7 6 6 6 6 5 5 5 5 5 5 5 5 5 5 5 6 6 6 7 7 7 8 7 8 8 8 8 8 7 6 6 4 4 6 9 16 26
63 59 59 67 66 55 56 65 64 54 45 41 45 55 68 74 74 75 77 68 53 53 68 79 85 92 98 95 93 96 99 98 97 96 91 86 81 71 60 52 45 39 35 33 31 28 24 19 14 10 8 8 7 6 7 6 6 6 6 5 5 5 5 5 6 6 6 6 7 7 7 8 8 8 8 8 8 9 8 8 8 7 6 5 5 6 10
61 57 60 70 66 54 56 67 64 52 47 47 45 47 56 67 76 79 72 63 59 61 63 67 77 89 94 93 94 98 100 96 93 91 90 90 88 77 66 61 59 53 45 41 39 36 32 29 24 18 13 10 8 8 8 7 7 7 7 6 6 6 6 6 6 6 6 6 6 7 7 7 7 8 8 8 9 9 9 9 9 9 9 8 7 6 6
65 65 69 69 61 57 64 68 59 50 50 53 53 50 49 53 63 69 65 61 66 72 70 66 71 83 93 96 96 99 100 96 91 87 84 82 79 73 68 69 72 66 56 48 44 42 39 35 32 28 23 17 12 9 8 9 9 9 8 8 8 8 7 7 7 7 6 7 7 7 7 8 8 8 8 8 8 9 9 9 9 9 9 9 9 9 8
58 64 66 57 48 52 59 59 56 55 52 53 57 58 54 52 52 55 60 64 70 78 84 82 79 82 91 98 97 96 96 94 90 86 80 75 72 70 71 77 80 73 60 51 47 46 43 39 36 34 30 26 21 15 11 10 10 10 10 10 10 10 9 9 8 8 7 7 7 8 8 8 8 9 9 9 9 9 9 9 9 10 10 10 10 10 9
48 51 51 46 42 44 48 51 57 59 54 54 61 62 62 63 62 60 63 67 71 77 85 90 90 87 88 92 95 96 97 97 95 90 85 82 79 76 79 82 76 64 55 49 43 39 38 38 38 36 33 30 28 22 16 12 11 11 11 11 11 11 11 10 10 9 9 9 9 9 10 10 10 10 10 10 10 9 10 10 10 10 10 10 10 10 10
40 41 43 41 38 38 41 49 59 60 56 59 64 64 63 65 66 67 69 69 70 73 77 82 86 86 84 86 90 92 94 96 94 92 91 89 86 89 95 91 69 49 43 42 38 34 33 35 36 35 32 29 28 24 19 15 13 12 12 12 12 13 12 12 11 11 11 11 11 12 13 13 12 12 12 11 11 11 10 11 11 10 11 11 11 11 11
32 34 35 34 34 41 47 49 51 54 57 61 64 65 64 62 62 65 69 71 72 74 75 76 78 78 80 83 85 86 88 89 88 86 84 79 75 79 83 72 51 39 38 40 41 38 35 33 34 34 31 29 27 23 20 18 16 15 15 14 14 13 13 13 13 12 13 14 15 16 17 17 16 16 15 14 14 13 12 13 12 12 12 12 11 11 11
28 29 28 24 26 35 40 39 41 50 57 61 63 63 62 62 61 62 64 68 72 73 74 76 77 76 77 78 79 81 84 84 83 81 77 69 62 58 53 46 42 43 45 46 44 40 35 33 33 33 31 30 27 24 22 21 21 21 20 18 17 16 14 14 14 15 17 19 21 22 22 21 20 20 20 19 19 18 17 16 16 15 15 14 14 13 12
23 25 25 23 23 25 27 30 38 49 55 58 62 64 62 62 62 60 61 64 68 70 71 75 78 78 78 77 76 77 78 77 75 74 70 62 52 46 42 43 47 50 51 50 45 38 33 32 32 31 30 30 28 27 27 26 26 25 24 21 19 17 16 18 20 21 23 24 24 23 23 23 24 24 24 24 23 22 22 21 20 20 19 18 17 17 16
21 21 20 20 21 22 23 26 34 44 53 58 61 61 61 61 61 61 61 62 64 66 69 72 75 79 80 80 78 74 71 70 69 68 64 57 48 44 46 51 54 55 56 53 45 37 33 32 32 31 31 30 29 28 28 27 27 26 24 23 22 22 23 24 25 25 26 27 28 30 31 32 33 33 33 33 32 31 30 29 27 26 25 23 22 21 20
20 19 17 17 18 20 22 24 28 38 49 55 56 56 57 59 61 62 62 62 63 65 69 72 74 77 80 81 79 74 69 67 65 64 61 57 52 52 54 56 57 58 57 53 46 39 35 32 32 32 31 30 29 29 28 28 28 27 26 26 26 26 26 27 29 31 35 38 40 42 43 43 43 44 43 43 42 41 41 40 39 37 36 34 33 30 28
18 16 17 19 21 24 27 27 27 33 41 48 52 53 55 58 59 59 60 62 63 65 68 71 73 74 77 79 78 74 69 65 63 63 63 62 61 61 60 59 58 58 56 53 47 40 36 34 34 33 32 31 30 29 29 29 29 28 28 29 30 32 35 37 40 43 44 45 45 45 45 45 46 47 47 48 48 48 48 47 47 47 47 46 45 44 42
15 16 18 21 25 30 34 34 33 34 39 44 49 51 53 54 55 56 59 61 61 63 66 69 70 72 75 75 74 72 67 61 61 65 67 65 64 64 61 59 58 58 55 51 45 41 38 37 35 34 34 33 31 30 30 31 30 30 32 36 41 45 47 48 49 49 48 48 49 49 50 51 51 52 53 55 55 56 56 56 55 55 55 55 55 54 53
15 16 18 23 29 34 36 38 38 38 39 44 48 51 53 55 56 58 60 60 59 60 63 66 69 71 71 72 72 70 63 59 63 69 69 66 64 62 60 59 59 59 56 52 47 44 42 40 38 37 36 34 32 31 31 31 31 34 40 47 51 53 53 53 53 52 51 51 52 54 56 58 60 61 63 65 67 68 69 69 68 68 67 66 67 67 67
19 19 20 26 33 36 38 41 43 45 47 49 52 54 55 57 58 59 60 61 61 61 62 64 67 69 70 71 71 66 60 60 66 70 68 65 63 62 60 61 61 61 59 56 52 49 47 44 42 41 38 36 34 33 33 34 36 40 46 51 52 52 52 51 51 52 54 57 61 66 69 72 73 74 75 75 74 73 73 73 72 71 70 70 70 71 74
23 24 26 31 35 40 44 48 50 52 53 54 55 57 58 58 59 59 59 59 59 60 61 62 65 67 70 71 68 63 61 65 69 70 68 66 64 63 63 63 62 62 63 62 59 57 55 52 49 47 45 42 39 37 36 38 41 44 48 50 51 52 54 57 61 66 71 75 78 80 81 82 83 83 83 81 79 76 75 74 73 70 68 67 67 67 68
27 28 32 36 41 46 50 53 54 56 57 59 59 59 58 56 55 54 53 54 55 58 60 63 65 68 70 69 64 62 64 68 70 70 69 66 64 65 68 68 67 68 70 69 64 62 62 61 59 58 57 55 53 52 52 52 54 56 58 61 63 66 70 74 77 80 83 85 86 87 87 88 87 86 87 88 88 86 84 83 81 78 76 73 71 68 66
33 35 38 42 47 51 53 55 57 59 61 61 59 55 51 49 48 48 49 52 56 59 62 65 68 70 69 67 65 67 72 75 75 74 72 70 69 71 73 74 74 74 74 72 69 66 65 65 63 63 65 67 68 70 71 70 71 71 71 72 74 75 76 76 79 82 86 90 92 93 94 94 93 93 94 96 97 96 94 91 88 85 83 80 75 73 73
42 44 47 49 52 53 54 56 60 61 60 58 55 53 50 47 45 45 48 53 58 62 65 68 70 69 67 67 69 76 85 91 89 83 80 79 80 80 81 83 83 81 77 76 75 71 67 66 67 69 73 77 80 82 82 80 80 80 80 80 82 83 83 84 87 90 93 94 94 93 91 89 87 88 91 95 97 98 98 97 94 92 90 88 86 86 88
48 49 51 52 53 54 56 58 60 59 57 56 57 57 54 50 46 46 51 58 64 66 68 68 67 66 71 77 83 89 96 98 94 90 90 91 89 89 90 94 96 95 92 90 85 76 69 70 75 80 83 88 90 90 89 89 90 91 93 94 96 96 95 95 95 96 96 96 96 94 90 84 82 83 86 90 94 97 97 97 98 98 97 97 96 96 96
49 50 51 51 53 54 56 58 58 57 58 59 61 61 58 55 53 52 55 60 64 65 65 66 67 70 79 88 91 93 94 93 90 91 95 96 95 95 96 97 99 98 96 95 93 87 82 84 87 89 90 91 90 89 89 92 95 97 99 99 99 98 97 96 95 94 91 88 85 82 78 75 75 76 77 80 84 86 85 85 87 86 85 85 87 89 92
51 51 51 52 53 54 56 57 58 59 61 63 64 63 63 62 60 59 59 62 64 65 67 70 73 76 83 87 89 90 92 92 93 95 97 98 98 98 96 95 95 92 89 89 93 95 95 97 97 96 95 95 95 94 93 93 93 95 96 96 95 94 93 90 86 80 75 71 68 67 66 66 66 67 67 69 71 72 72 72 71 70 69 68 71 77 85
53 53 52 53 54 55 56 57 58 61 65 66 65 66 67 68 69 68 68 68 70 71 74 78 82 86 89 91 91 92 92 92 93 95 96 97 98 98 97 96 97 96 93 93 96 97 98 100 100 97 96 98 100 100 96 93 93 95 96 93 91 87 82 75 69 64 63 64 65 66 67 67 65 62 61 62 64 66 68 67 66 65 64 62 63 68 75
55 55 55 56 57 57 57 58 61 66 69 68 67 68 71 74 75 75 75 74 74 76 80 84 88 92 93 92 91 93 93 92 92 95 96 97 97 97 97 98 99 99 98 99 100 99 99 99 96 94 94 97 99 98 97 97 97 95 89 82 76 70 64 61 60 61 64 66 69 70 71 70 66 60 55 53 55 59 61 62 61 60 60 59 60 62 66
58 58 58 58 57 58 60 63 67 70 70 68 68 71 75 78 80 81 81 82 82 84 86 90 93 95 97 95 93 94 94 91 88 89 93 97 98 98 97 98 100 100 100 100 99 97 95 93 91 92 95 97 97 97 97 96 90 81 72 65 61 60 60 62 64 66 67 68 69 69 69 67 62 57 52 50 50 51 52 53 54 55 55 57 59 61 63
59 60 60 59 59 61 64 67 69 70 70 69 70 73 77 81 83 84 86 88 89 89 89 91 94 96 98 99 97 96 94 91 89 87 88 92 96 98 99 100 100 99 99 99 98 96 94 94 94 96 96 96 95 94 92 87 79 71 66 64 63 64 65 65 65 65 65 64 63 63 62 59 55 52 49 47 46 45 45 45 46 48 51 53 56 58 60
59 60 60 60 61 64 68 70 70 70 70 70 73 77 80 82 84 85 85 86 88 88 89 92 94 95 96 98 99 96 93 93 94 91 85 81 83 89 93 96 99 99 98 97 97 96 94 93 92 91 89 88 88 86 82 77 72 69 68 67 65 63 61 59 58 58 58 58 57 57 56 54 53 51 49 47 45 43 42 42 42 44 47 51 53 54 56
60 60 60 62 64 68 70 70 70 70 70 71 75 78 79 80 83 84 82 81 83 84 85 87 89 90 93 97 98 96 94 95 97 93 84 78 78 82 86 90 94 96 95 93 92 90 88 86 85 84 84 84 83 79 75 72 71 70 68 66 64 61 58 54 51 50 51 52 52 52 51 50 50 49 47 47 46 44 42 41 41 43 45 48 49 50 51
60 61 61 63 65 67 68 69 70 71 71 73 76 77 77 79 83 84 82 82 84 86 84 84 85 88 91 93 94 94 94 97 99 95 89 84 83 85 87 90 93 94 94 92 89 86 85 84 84 83 81 78 74 72 72 73 74 71 68 65 64 61 55 47 43 43 44 44 43 42 40 40 41 42 43 43 43 42 41 42 42 42 42 43 43 44 45
60 61 62 64 66 68 69 71 72 71 70 72 75 75 75 79 84 85 85 86 88 89 87 85 86 88 90 92 93 93 95 99 100 98 94 91 89 88 90 93 94 93 92 89 85 83 82 80 77 74 71 70 70 73 76 77 75 71 69 67 63 56 47 39 36 36 36 35 34 33 33 34 35 37 40 41 42 41 42 43 42 41 41 41 40 40 40
62 63 65 66 68 69 69 69 69 69 69 71 73 74 74 79 84 85 85 87 91 93 93 92 92 92 92 93 95 96 98 100 100 99 97 95 90 88 89 91 92 89 86 83 80 78 75 73 70 70 71 74 77 79 79 76 73 71 69 64 54 44 36 32 32 32 32 32 32 32 33 34 35 36 38 39 39 40 40 41 41 40 41 41 40 40 39
Wind_Speed
3 2 2 2 2 1 2 3 4 5 6 7 8 10 10 9 8 5 3 4 3 2 4 6 7 7 8 8 7 6 4 4 4 4 5 5 4 4 5 4 4 5 6 7 7 8 8 9 10 10 11 12 13 14 15 16 17 18 19 21 23 25 26 27 27 27 27 27 27 28 28 28 28 29 30 32 32 33 33 33 32 31 30 30 29 29 30
2 2 2 1 1 2 2 3 4 5 6 7 8 10 11 12 12 11 10 9 6 4 5 6 7 7 7 7 7 6 4 3 3 3 3 3 4 4 4 4 4 5 6 7 8 8 9 9 9 10 10 11 12 13 14 15 16 17 18 19 21 22 25 27 28 29 30 30 30 30 30 30 30 29 30 30 31 32 33 34 35 36 35 34 33 32 31
2 2 3 2 2 3 3 3 3 4 5 5 7 9 10 12 12 11 12 10 7 7 6 6 7 7 5 6 6 5 4 4 4 4 2 2 3 2 3 4 4 5 5 5 7 7 8 8 8 9 10 10 11 12 13 14 14 15 17 18 19 20 22 24 26 27 29 30 31 31 31 31 32 32 32 32 32 32 33 33 34 36 37 37 37 36 35
2 2 3 2 1 3 3 3 3 2 3 2 4 6 7 8 8 7 7 6 5 7 7 6 7 7 6 6 5 5 4 4 4 3 2 2 2 2 2 3 3 4 3 3 4 6 7 7 8 8 9 10 11 11 12 12 12 14 15 16 17 19 20 22 23 24 26 28 30 31 31 32 33 34 34 34 34 34 35 35 35 35 35 37 38 38 38
0 3 4 2 2 3 1 2 2 1 1 1 2 4 4 6 7 6 4 4 6 9 8 6 6 6 6 6 5 4 4 4 4 3 2 2 2 2 2 2 2 2 3 3 3 5 6 6 7 8 8 9 10 10 11 11 11 11 12 13 14 15 17 19 21 23 24 26 27 29 30 31 32 34 35 36 37 37 37 38 38 37 37 37 37 37 38
2 3 4 2 3 2 1 1 2 1 1 2 2 3 5 6 6 6 6 8 9 8 6 5 6 5 5 4 4 4 4 4 4 4 3 4 4 4 3 3 2 1 2 3 4 5 5 6 7 7 7 7 8 9 9 9 9 9 9 10 10 11 12 14 16 18 21 23 26 28 29 30 31 33 34 35 36 38 39 40 40 41 41 40 39 39 38
4 4 3 3 3 2 1 1 2 1 1 3 4 4 6 6 6 7 7 7 7 6 5 5 4 4 3 3 4 4 4 4 4 4 5 4 4 4 3 2 2 2 2 3 4 5 5 5 6 6 6 6 7 7 8 7 7 8 8 9 9 9 9 10 10 12 14 17 20 23 25 28 29 31 33 34 35 36 38 40 41 43 43 44 43 42 41
4 4 4 3 3 3 2 1 2 3 3 3 5 6 5 6 7 8 7 7 7 7 6 5 5 5 5 6 6 6 6 5 5 5 5 4 3 3 3 4 4 5 5 5 6 7 7 6 7 7 6 6 6 7 7 8 8 8 9 9 10 10 11 11 11 11 12 13 14 16 18 20 22 25 28 30 31 33 35 37 39 41 43 45 46 46 45
4 5 5 4 3 2 2 1 4 4 4 4 5 6 6 7 7 7 8 9 10 10 8 8 9 9 8 7 6 7 7 7 6 5 4 4 4 4 5 6 7 8 9 9 9 10 10 10 9 9 9 8 8 8 8 9 10 10 11 11 12 13 13 14 14 14 14 15 15 15 16 17 18 20 22 24 26 28 30 31 33 36 38 41 44 46 47
5 6 6 4 4 2 2 2 5 5 4 5 6 8 8 6 5 6 7 10 12 12 12 12 11 10 7 5 6 8 8 6 7 6 5 6 6 6 7 8 9 10 10 10 10 9 10 11 10 10 10 10 10 10 10 11 12 12 13 14 14 15 15 16 16 16 17 17 17 17 17 18 18 19 20 22 23 25 26 27 28 30 32 34 37 41 43
6 7 6 5 4 3 2 4 7 7 5 4 7 8 6 5 6 8 5 9 12 12 11 12 12 9 5 4 6 9 7 6 6 6 5 5 5 6 8 9 8 8 8 8 7 6 7 7 8 8 9 9 10 10 10 11 12 13 14 14 14 14 14 15 16 16 16 16 16 17 17 17 17 17 19 20 22 23 25 26 27 28 29 30 31 34 37
8 7 8 8 6 5 6 8 7 6 4 4 6 4 2 4 8 8 4 6 10 11 10 10 10 7 5 6 9 9 6 6 8 7 5 4 4 5 6 6 6 6 5 4 4 3 3 3 4 4 5 6 8 8 9 10 11 11 11 11 10 11 11 12 12 13 14 14 15 15 15 15 15 15 16 17 19 20 22 23 25 26 27 28 29 29 31
9 8 9 9 7 7 8 7 5 4 4 3 3 2 4 7 9 8 5 4 8 10 9 8 7 6 8 11 11 9 8 8 9 8 6 5 5 5 4 4 4 3 2 2 3 3 2 1 1 2 3 4 5 5 6 7 7 7 7 7 8 8 9 10 11 11 12 13 14 15 15 15 15 14 14 15 16 17 18 19 21 22 24 25 26 27 28
10 9 9 10 9 7 6 5 4 3 2 3 5 6 8 8 7 8 7 2 6 9 9 8 7 6 8 10 9 9 10 9 7 6 5 4 4 4 3 3 3 2 1 1 1 1 1 2 1 0 1 2 2 3 3 4 4 5 5 6 7 7 8 9 10 11 12 13 13 14 14 14 14 14 14 15 15 16 16 15 16 17 19 20 21 23 24
9 8 8 8 6 5 5 5 6 4 4 5 8 8 7 7 7 8 8 3 4 7 8 8 7 6 7 9 9 10 10 8 6 4 3 3 3 2 2 2 2 2 2 1 1 1 1 1 1 0 0 0 1 1 2 3 4 5 6 6 7 8 8 9 10 11 12 12 13 14 14 15 15 15 15 16 16 16 16 15 14 14 15 16 17 18 18
8 7 6 6 6 6 7 7 6 5 6 8 7 4 4 7 8 9 9 6 3 5 6 8 7 6 6 8 9 10 9 7 6 4 4 4 3 2 1 2 3 3 2 1 1 2 2 2 2 2 2 2 2 2 3 4 5 6 6 7 8 9 9 9 10 10 11 12 13 14 15 16 17 17 18 17 17 17 17 17 16 15 14 14 14 14 14
10 9 8 9 10 11 10 7 6 7 8 9 7 4 4 7 8 9 9 7 4 3 5 7 7 6 6 6 7 8 7 6 6 5 5 4 3 2 2 1 2 2 1 1 1 1 2 2 2 2 3 4 4 4 4 4 5 5 6 7 7 8 8 9 9 10 11 12 13 14 15 16 17 18 19 19 19 19 19 19 18 18 16 15 14 13 13
12 12 12 12 12 11 10 8 8 10 9 8 8 6 4 6 7 9 9 8 5 3 3 5 7 6 5 6 6 6 6 6 6 5 5 4 3 2 2 1 1 1 1 1 1 2 2 2 2 2 3 3 4 4 4 4 4 5 5 6 7 7 7 8 8 10 11 12 13 14 15 16 17 18 19 19 20 20 20 20 19 19 18 17 16 15 14
12 9 9 10 10 9 10 10 10 11 10 9 9 8 7 8 9 9 10 9 6 4 3 5 7 6 6 6 6 5 5 5 5 5 5 4 3 2 2 2 3 3 2 1 1 1 2 2 2 3 3 3 4 4 4 4 4 4 5 6 7 7 7 7 8 9 10 11 12 14 15 16 17 17 18 19 19 20 20 20 19 19 18 17 17 16 16
14 11 10 12 13 12 12 11 11 10 10 10 10 10 10 11 10 10 10 9 7 5 5 5 6 6 6 6 6 6 6 5 5 5 5 4 4 3 3 4 4 5 5 4 4 4 4 4 4 4 4 5 5 5 5 6 6 6 7 7 8 8 8 9 9 10 10 11 12 14 15 16 16 17 17 18 19 19 19 19 19 19 18 17 16 16 15
13 13 12 12 12 11 11 11 10 9 9 11 12 13 14 13 10 9 10 10 7 5 5 5 6 7 7 7 7 6 6 5 5 5 4 4 4 4 4 5 5 5 5 6 6 6 6 6 6 5 5 6 7 7 7 7 7 8 8 9 10 10 10 11 11 11 12 13 13 14 15 16 17 17 18 18 18 19 19 20 20 20 19 18 17 16 15
12 11 10 10 9 8 7 9 9 8 8 8 9 12 15 13 10 9 10 9 6 5 4 5 6 7 7 7 7 7 6 5 5 5 5 5 5 5 6 7 7 7 7 6 6 7 7 7 7 7 6 7 8 8 8 8 9 9 9 10 11 11 12 12 12 12 13 13 14 14 15 16 17 18 18 18 18 19 19 20 20 20 20 20 19 18 17
13 12 10 12 12 9 8 11 11 10 8 5 4 7 11 12 10 9 10 8 6 4 4 4 5 7 7 7 7 7 6 6 5 5 5 5 5 6 8 9 9 9 9 8 7 7 7 8 8 8 7 8 8 9 9 9 10 10 10 11 12 12 12 12 12 13 13 14 14 15 15 16 16 17 18 18 18 18 18 19 19 20 20 20 20 20 19
18 16 14 16 15 11 11 14 13 10 8 5 2 2 6 9 10 10 9 8 6 4 3 3 4 5 7 7 7 7 7 7 6 5 5 5 6 7 8 9 10 11 10 10 8 7 7 8 9 9 9 9 9 10 10 10 10 10 11 12 12 12 13 13 13 13 13 14 14 15 15 16 16 17 18 18 19 19 19 19 19 19 20 20 21 21 21
20 20 19 20 17 14 15 16 13 11 10 8 4 1 1 4 7 8 9 7 6 5 5 4 3 3 5 6 6 6 6 6 5 5 6 7 7 8 9 9 10 11 11 11 9 8 8 8 9 9 9 9 10 10 10 10 10 11 11 12 12 12 12 12 13 13 13 14 14 14 15 16 17 17 18 18 19 19 19 19 19 20 20 20 20 20 21
22 22 22 21 19 18 18 16 14 12 10 9 7 5 3 2 3 4 5 5 4 5 6 6 6 5 4 5 5 5 4 5 6 7 8 9 9 10 11 11 12 11 10 11 11 10 8 8 9 9 9 9 10 10 11 11 11 11 12 12 12 12 13 13 13 13 13 13 13 14 15 16 16 17 18 18 19 19 19 19 19 20 20 20 21 21 21
22 23 23 22 20 18 17 16 15 14 11 10 10 9 8 7 5 3 3 3 3 3 4 5 7 6 5 5 6 6 6 7 8 9 10 11 12 13 13 13 14 12 11 11 12 11 10 9 9 9 9 9 9 10 10 11 11 11 12 12 13 13 13 13 13 13 13 13 13 13 14 15 16 17 18 18 19 20 20 20 20 20 20 21 21 22 22
21 22 24 23 21 18 16 18 19 17 14 14 14 12 11 10 8 7 6 6 6 6 6 6 6 6 6 7 8 8 8 9 10 10 11 12 13 14 14 14 14 12 11 11 12 12 11 9 8 9 9 9 9 9 10 10 11 11 12 12 13 13 13 13 14 14 14 13 13 14 15 16 16 17 17 18 19 20 20 21 21 22 22 22 22 23 23
22 23 24 23 21 19 19 19 19 18 17 17 16 15 13 12 11 10 9 9 9 9 9 9 9 8 8 9 9 9 10 11 11 12 12 12 13 13 13 13 13 12 11 12 12 12 10 8 7 8 8 9 8 9 10 10 11 11 11 11 12 12 12 13 13 13 13 13 14 14 15 15 16 16 17 17 18 19 20 21 22 22 23 23 23 23 24
24 24 23 21 20 19 18 18 20 21 21 20 18 17 16 15 14 13 12 12 13 13 12 12 12 12 11 11 11 12 12 13 12 12 12 12 12 11 11 11 11 11 12 12 11 10 8 7 6 7 8 8 8 8 9 10 10 10 10 10 10 10 11 11 11 11 11 11 12 13 13 14 14 15 16 17 17 18 19 20 20 21 22 23 23 23 24
24 25 23 20 18 17 15 16 20 23 23 23 22 20 18 16 15 14 13 14 14 14 14 15 15 15 14 14 15 15 15 14 14 13 12 11 11 10 10 10 10 11 12 12 11 9 7 6 6 6 7 7 8 8 9 9 9 9 9 9 9 9 9 9 9 8 9 9 10 10 11 12 13 14 15 16 17 18 19 19 20 21 21 22 23 23 24
25 25 22 19 17 16 15 16 19 23 25 24 23 21 19 17 16 15 14 15 14 14 16 17 18 17 17 17 18 18 17 16 14 12 11 11 10 10 10 10 10 10 11 12 11 9 7 6 6 6 7 7 7 8 8 8 8 8 7 6 7 7 8 8 8 8 8 9 10 11 12 13 14 15 16 17 18 19 19 20 20 21 21 22 22 23 24
27 24 20 17 15 14 13 14 17 21 24 24 23 21 20 19 18 17 16 16 16 17 18 20 20 20 20 20 19 19 18 16 13 11 10 10 10 10 10 10 10 10 11 11 10 9 8 7 7 7 7 7 7 8 8 8 7 7 5 5 6 7 7 7 8 9 10 11 13 14 15 16 17 18 18 19 20 20 21 21 22 22 23 23 24 24 24
27 22 19 16 14 12 12 13 15 18 21 22 22 21 20 19 18 17 18 19 19 20 21 22 22 22 21 21 21 20 19 15 12 10 10 10 11 10 10 10 9 10 10 10 9 9 8 8 9 8 8 7 7 8 8 8 7 6 5 5 6 7 8 9 10 11 13 14 16 17 18 20 21 21 22 22 22 23 23 23 24 24 25 25 26 26 26
25 21 18 17 15 14 15 15 16 17 18 19 19 19 18 18 18 18 19 20 20 20 22 24 24 24 23 22 21 20 18 14 11 11 11 11 11 11 10 9 9 9 9 9 9 9 9 10 10 10 9 8 7 8 9 8 8 6 5 6 7 9 10 12 13 15 17 18 20 21 22 23 24 25 25 25 26 26 26 26 26 26 27 27 28 29 30
24 21 18 17 16 16 16 16 16 16 17 17 17 17 17 17 18 19 20 20 20 21 23 25 26 25 24 23 22 20 17 14 12 12 12 12 12 11 10 9 9 8 8 9 9 9 10 10 11 11 10 9 8 9 9 9 8 8 8 9 10 12 14 15 17 19 21 23 24 25 26 27 28 28 29 29 30 30 30 30 29 29 29 29 30 31 32
21 19 17 18 18 18 18 17 16 16 16 16 16 16 18 19 21 22 23 24 23 24 25 26 26 25 24 23 21 19 15 13 13 13 13 12 11 11 10 9 9 8 8 9 10 10 11 11 11 11 11 10 9 9 9 9 9 10 11 12 14 15 17 19 21 22 24 26 27 29 30 31 32 32 33 34 35 35 34 34 33 33 33 34 34 34 34
18 18 19 20 20 19 18 17 16 15 14 14 16 18 20 22 24 25 26 26 25 24 24 25 25 24 23 22 20 16 14 13 13 13 12 11 10 9 9 10 10 9 9 9 11 11 12 12 12 12 12 12 11 11 11 12 13 13 14 16 17 19 20 22 23 25 26 27 29 30 32 33 35 36 36 37 38 39 39 38 38 38 38 39 40 40 40
17 18 20 21 21 20 18 16 15 14 15 16 18 18 19 20 21 22 22 22 22 23 23 23 24 24 22 20 17 14 13 13 13 12 11 10 8 8 8 10 11 11 11 12 13 14 14 14 13 13 13 13 13 13 14 16 17 18 19 20 21 23 24 24 25 26 27 28 29 30 31 33 34 35 36 36 38 39 41 41 41 41 41 41 42 43 43
17 18 20 20 20 19 18 16 15 15 16 16 16 15 15 16 17 17 17 18 19 20 21 22 22 22 20 17 15 12 11 10 10 10 10 10 9 9 10 10 12 14 15 15 15 16 16 16 15 15 15 15 15 16 18 19 20 22 23 24 24 24 25 26 27 28 29 30 31 32 33 34 35 36 36 37 37 38 40 41 42 43 43 43 43 44 45
18 19 19 20 20 19 18 17 17 17 17 15 13 12 12 14 14 15 15 15 17 19 20 21 21 19 16 13 12 10 10 10 10 10 11 11 11 12 11 9 9 12 14 16 18 19 18 17 17 17 17 17 18 19 20 22 23 23 24 24 24 25 26 27 28 30 31 33 34 35 36 37 38 38 38 39 39 39 40 40 42 43 44 44 44 45 46
19 20 19 19 20 20 19 19 19 18 16 14 12 12 12 12 13 15 16 16 18 19 19 19 18 16 13 12 11 10 10 11 12 13 13 14 14 14 11 9 9 13 15 17 19 20 20 19 19 19 19 20 21 22 22 23 24 25 25 25 26 27 28 29 31 32 34 35 35 36 37 37 38 39 39 40 40 40 40 40 41 42 43 44 44 44 46
19 20 20 20 20 21 21 20 19 17 15 13 12 11 11 11 13 15 16 17 18 18 17 16 15 14 13 12 12 12 13 15 16 17 18 18 18 18 16 14 15 17 17 16 18 20 21 22 23 22 22 23 24 24 24 25 26 27 28 29 30 31 32 32 33 33 34 34 35 36 37 38 39 40 40 40 40 41 41 41 41 42 43 43 44 44 45
19 19 20 20 21 21 22 21 19 16 13 11 10 10 10 11 12 14 15 16 16 15 14 14 13 11 11 12 14 15 17 18 19 21 22 21 21 22 21 20 21 22 21 19 20 22 23 24 25 25 25 25 26 26 27 28 29 29 31 32 32 32 32 32 33 33 33 35 36 37 39 40 41 42 43 43 42 42 42 42 42 43 43 44 44 44 44
19 19 20 21 22 22 22 20 17 15 13 11 10 9 9 10 11 12 13 13 13 13 12 12 12 13 14 15 17 18 20 21 22 23 24 24 25 26 25 24 24 25 25 25 26 26 27 27 28 28 28 28 28 28 29 31 31 31 31 31 31 31 31 32 33 35 36 38 39 40 41 43 44 44 45 45 44 43 43 43 43 43 44 44 44 44 44
22 21 21 22 22 22 20 18 17 16 15 13 11 9 9 10 11 11 11 11 11 11 12 13 15 15 16 17 18 18 19 21 23 24 25 25 27 28 28 26 27 28 28 28 29 29 29 29 28 28 29 30 30 30 31 31 30 30 30 30 30 32 33 35 37 39 40 41 42 43 43 44 45 45 45 44 43 43 42 42 42 42 42 42 42 42 42
25 23 22 22 22 21 19 18 17 17 16 14 12 10 10 11 12 12 13 13 13 14 14 15 15 16 17 19 19 18 15 14 16 19 23 25 27 28 29 29 29 30 29 29 29 29 29 28 29 29 29 29 29 29 29 29 30 30 30 31 32 34 36 38 40 41 42 43 44 44 44 44 44 43 43 42 42 42 42 42 42 41 41 41 41 40 40
26 25 24 23 22 20 18 18 17 16 15 13 12 12 12 13 13 14 15 16 16 16 16 16 16 17 19 20 21 20 17 13 13 15 18 21 23 25 27 28 29 28 28 28 28 28 27 27 27 27 27 26 27 27 28 29 29 29 30 32 34 36 38 40 41 42 43 43 43 43 43 43 42 41 41 41 41 41 42 42 42 42 41 41 41 41 40
28 26 25 23 22 20 19 18 18 17 15 14 14 15 16 15 15 17 18 18 17 17 18 19 19 20 21 21 22 22 21 19 18 18 19 19 20 22 24 25 25 25 25 25 25 24 24 24 24 24 24 25 27 28 28 29 29 30 32 34 36 38 40 41 41 41 41 41 41 41 41 41 41 41 41 40 41 41 41 41 41 41 40 40 40 40 40
29 27 26 24 23 21 20 19 18 17 17 16 17 18 19 18 18 20 21 20 19 20 21 21 22 22 22 22 22 22 22 23 23 23 21 20 20 21 21 21 21 22 22 22 22 22 22 22 23 24 26 27 29 29 29 29 31 34 36 38 39 41 42 42 41 40 40 40 40 40 40 40 40 40 40 40 40 40 39 39 39 39 39 40 40 40 40
27 27 25 24 23 22 21 20 20 20 19 20 20 21 22 21 22 23 23 22 21 22 23 23 24 24 24 23 23 22 23 25 25 25 24 23 21 21 21 21 21 21 21 22 22 23 24 24 25 27 28 29 30 30 30 32 34 37 40 41 42 42 42 41 40 39 39 39 39 39 38 38 38 38 38 38 39 39 39 39 39 39 40 40 40 40 40
26 26 25 24 23 22 21 21 21 21 21 22 22 23 23 24 25 25 24 23 23 24 24 24 24 24 24 24 23 24 24 25 26 25 25 25 24 23 22 22 21 21 21 22 23 25 26 27 28 29 29 30 31 32 33 36 38 40 42 43 42 41 40 39 38 37 37 37 37 37 36 37 37 37 37 38 38 39 39 40 40 40 41 41 41 41 41
Wind_Direction
36 41 17 7 14 344 307 284 279 272 268 265 255 255 261 266 268 286 324 316 319 311 222 212 204 195 196 208 208 206 226 253 277 297 308 306 300 302 301 288 278 269 257 246 240 239 244 246 249 253 255 258 261 262 264 264 264 263 261 259 259 259 260 261 263 263 263 263 263 264 264 263 260 258 257 256 256 256 256 255 254 254 254 253 251 249 249
341 11 6 350 322 308 312 306 291 272 261 257 256 259 256 249 251 265 278 282 290 280 235 208 201 190 186 204 213 218 230 231 249 279 291 299 302 307 307 305 298 286 274 260 252 248 248 249 252 253 253 253 255 257 259 262 264 264 263 261 260 259 259 260 262 262 263 263 263 264 264 265 266 265 263 262 261 260 259 258 257 257 258 258 257 255 254
273 346 4 339 284 283 295 317 305 279 270 259 254 263 260 252 255 261 266 275 277 260 238 209 207 201 192 205 214 221 230 232 265 283 273 270 288 297 305 311 310 302 288 266 253 249 249 252 255 259 261 262 260 259 260 262 263 263 262 261 259 257 258 258 259 261 262 262 263 263 262 263 263 264 265 264 263 262 262 261 260 259 259 259 259 259 258
254 354 347 311 270 282 300 333 330 295 292 269 254 268 261 249 255 255 256 271 263 247 242 220 214 218 216 215 214 220 230 238 258 264 235 228 264 274 282 297 304 304 303 279 255 247 247 252 256 260 264 268 268 268 267 266 267 267 265 264 261 257 256 257 257 259 260 261 262 263 262 261 261 261 261 261 261 262 262 262 262 261 260 259 259 259 259
321 0 336 303 259 270 300 2 336 302 327 319 268 281 270 248 244 234 237 253 238 238 242 219 207 217 218 217 223 228 228 222 217 215 214 234 266 275 272 270 274 288 297 291 270 257 251 249 253 258 262 267 271 272 272 272 271 271 270 269 266 262 260 258 258 259 259 260 261 262 262 262 261 261 260 260 259 259 260 260 261 262 261 260 260 260 260
331 341 326 270 250 284 51 40 297 276 33 11 344 295 276 266 250 227 229 241 235 231 227 206 207 219 219 226 237 233 224 217 212 215 230 249 254 248 247 248 243 247 278 283 276 264 255 248 247 250 255 263 270 271 272 274 274 275 276 273 270 267 264 262 261 261 261 261 262 262 262 263 263 263 262 262 261 259 258 258 258 259 259 260 260 260 260
309 321 304 249 256 324 8 275 279 291 323 355 356 315 278 269 263 246 239 239 231 218 199 193 210 222 232 259 262 249 240 233 229 233 242 253 258 252 254 262 260 256 265 274 276 269 261 255 252 248 246 253 265 269 270 273 277 281 283 282 280 277 273 271 269 266 265 265 265 265 265 265 265 265 266 266 266 264 263 261 259 258 258 258 258 258 258
303 305 298 290 314 317 304 315 318 300 299 329 347 335 303 283 277 264 250 238 229 220 205 210 240 250 260 278 273 257 251 247 247 250 249 256 271 280 296 309 303 294 284 278 277 274 266 259 253 251 247 246 255 262 266 270 274 279 282 284 284 284 284 284 282 280 278 275 274 273 273 273 273 272 271 270 270 269 267 266 264 262 260 259 259 259 258
296 294 290 292 293 255 207 331 330 321 317 316 328 330 306 288 286 272 251 237 232 230 227 237 254 259 265 280 275 258 254 250 247 250 249 254 272 287 296 299 297 294 291 285 280 274 268 260 253 251 249 247 250 257 263 270 274 277 280 281 283 285 286 287 287 286 286 285 284 283 282 282 282 280 278 277 275 273 272 270 268 265 263 261 259 259 259
282 291 290 281 273 227 180 320 328 331 321 306 318 319 297 285 307 300 260 238 232 233 235 242 251 255 265 285 272 258 260 256 248 251 255 260 270 282 289 292 292 291 292 289 283 276 269 262 256 252 250 250 253 256 260 268 274 277 280 281 284 286 287 289 289 289 289 290 289 289 289 289 288 287 285 283 280 278 277 276 274 271 268 264 261 260 259
264 275 279 276 276 264 265 307 319 318 308 307 318 311 271 258 312 322 285 242 233 227 225 234 240 242 256 278 257 251 259 260 249 247 250 254 266 281 286 290 291 291 292 291 289 284 276 270 263 255 251 250 253 257 262 268 272 277 280 283 286 288 289 290 292 293 294 295 295 296 298 299 299 298 295 291 288 284 281 279 278 276 274 271 268 264 262
246 252 271 278 270 264 276 288 300 304 299 295 307 312 240 263 306 330 324 250 236 224 218 227 234 233 228 232 237 243 252 255 253 251 250 256 272 280 283 286 287 291 296 301 310 317 306 292 274 258 252 250 253 259 265 270 274 279 285 291 295 297 299 300 302 304 305 306 306 308 310 312 312 310 307 302 299 294 290 285 281 279 277 275 274 272 269
244 243 263 276 273 271 279 280 282 287 280 264 272 289 282 287 307 337 346 264 233 228 224 222 224 229 230 227 232 247 257 256 257 257 254 261 269 265 269 279 282 289 312 334 344 356 2 0 307 257 252 251 255 261 263 268 278 286 297 307 310 312 314 315 317 318 318 318 319 320 321 323 323 324 322 319 315 309 301 294 288 284 282 280 278 276 274
253 253 260 275 279 267 260 265 274 270 247 259 280 280 280 291 317 340 343 290 229 235 232 219 209 221 239 240 240 251 256 251 249 247 239 243 252 249 252 268 276 297 328 334 348 14 45 73 90 171 217 223 242 258 269 283 297 309 317 322 322 323 325 326 328 329 328 328 328 328 329 331 334 338 338 336 333 327 319 308 298 293 292 291 289 284 280
241 248 255 270 273 250 251 283 293 264 220 257 287 291 296 311 324 331 341 336 239 233 223 216 214 217 241 254 252 252 252 245 234 222 210 220 234 234 243 274 302 321 317 306 350 13 32 64 76 123 171 189 254 275 295 308 319 327 330 331 331 330 333 335 336 335 334 335 336 335 338 341 345 348 348 347 345 342 338 330 318 309 305 305 304 300 293
234 242 247 247 244 258 281 293 287 262 252 270 289 299 300 310 323 333 339 336 281 229 205 208 215 215 224 239 244 243 238 226 216 207 202 214 223 219 238 288 312 315 309 313 342 346 346 356 356 347 350 349 337 334 332 330 331 335 335 333 331 332 336 340 339 338 339 341 342 342 345 348 350 350 351 351 351 349 348 345 338 329 322 318 316 314 309
246 246 250 253 259 276 288 283 267 272 277 280 288 287 271 291 318 334 333 323 299 252 213 205 208 213 213 215 222 223 214 204 202 200 200 203 200 196 205 229 274 284 291 312 293 299 311 320 333 342 341 339 338 340 340 335 331 333 330 328 327 329 335 339 340 340 342 343 344 346 348 351 351 350 351 352 352 351 351 350 347 342 334 326 320 316 313
257 257 262 265 266 273 279 274 274 284 284 277 282 287 269 277 304 322 322 315 302 277 235 207 203 208 209 205 206 204 196 197 199 201 207 209 198 197 198 189 218 218 170 194 229 251 281 298 316 331 329 327 326 331 336 332 327 324 321 320 321 324 329 336 340 340 341 342 344 345 347 349 350 349 350 351 352 352 350 349 348 346 342 333 323 312 304
259 267 275 273 267 267 273 277 282 287 284 274 275 276 262 266 291 311 314 310 301 282 253 216 200 198 198 196 196 194 194 200 205 210 217 221 226 250 284 319 337 347 358 342 297 270 280 294 311 317 318 319 318 323 330 328 325 321 318 316 317 318 324 332 337 338 338 339 341 342 343 346 347 347 348 350 351 351 350 348 347 346 344 340 331 317 304
254 258 262 267 270 272 275 276 280 286 284 272 264 263 261 268 285 302 306 303 298 280 252 217 198 198 199 196 196 198 202 205 209 214 220 224 238 267 300 319 325 331 335 336 335 327 317 312 311 314 318 317 316 321 325 325 325 324 320 317 315 316 320 326 331 334 335 336 338 339 338 340 341 342 344 345 347 348 347 347 347 346 345 343 338 329 316
253 258 260 263 269 277 278 272 271 280 284 274 261 253 253 262 274 288 298 300 291 265 228 203 198 202 202 201 202 204 205 208 209 211 220 234 251 274 298 310 315 317 322 325 328 327 322 315 310 312 312 310 312 315 317 318 321 320 319 318 316 316 318 321 324 328 330 332 334 335 335 335 336 337 339 340 342 343 343 344 345 345 345 344 342 339 333
250 256 258 251 249 261 268 259 261 277 290 285 266 250 247 252 261 272 283 285 271 237 209 197 201 205 203 203 206 207 207 212 217 223 234 246 261 282 299 309 315 317 317 319 321 320 317 313 309 309 305 303 305 308 310 313 314 314 315 316 314 315 316 317 319 322 324 326 328 330 331 332 332 333 334 335 336 337 338 339 341 341 342 342 343 342 341
245 246 251 251 248 247 240 243 258 280 288 291 290 262 246 239 241 255 264 255 232 216 209 196 200 207 205 202 207 213 218 225 229 236 245 251 259 273 289 305 315 318 319 319 316 312 311 310 308 305 301 297 297 300 304 307 310 311 312 312 311 312 313 314 315 317 318 320 322 323 326 327 328 328 329 329 330 332 333 334 335 336 337 338 339 341 342
246 245 247 252 255 248 238 244 258 276 279 275 304 287 245 232 230 234 237 228 214 211 208 189 188 204 208 209 213 219 227 236 240 248 263 274 278 283 290 302 313 319 321 322 317 310 307 308 305 302 299 295 292 292 295 299 303 307 308 308 309 309 310 311 313 313 314 315 316 319 321 323 324 325 325 326 327 328 329 330 330 332 333 334 335 336 337
247 247 248 251 251 243 239 243 251 264 270 267 258 231 216 230 227 218 211 207 206 209 211 203 196 203 210 215 220 225 236 248 260 277 292 299 304 306 307 309 312 315 318 320 317 310 306 306 304 300 297 294 291 289 290 292 297 301 303 304 305 306 308 310 311 312 313 313 314 316 319 321 322 323 323 324 324 325 326 327 328 329 330 330 330 330 331
243 244 246 247 245 239 237 239 243 252 258 254 248 242 231 230 231 213 203 201 201 211 217 214 215 223 229 228 231 240 258 271 280 291 300 304 309 312 311 309 307 307 307 309 311 312 310 309 306 303 301 298 293 289 288 288 292 296 299 301 303 304 306 309 309 310 312 312 314 317 318 320 321 321 321 321 321 322 323 324 325 325 325 325 325 326 326
242 243 244 245 244 242 238 232 232 236 236 234 240 246 244 244 249 249 251 255 247 241 237 229 230 240 253 253 249 252 260 266 273 281 287 291 294 296 296 297 300 301 300 302 308 313 316 316 315 312 308 304 299 293 290 288 290 292 295 297 300 303 305 307 308 309 311 312 316 318 319 320 320 320 320 321 321 321 321 322 322 323 323 324 324 325 324
242 242 244 245 243 241 236 230 226 224 222 225 233 239 244 249 250 247 254 268 273 271 272 267 262 265 266 262 263 266 267 270 275 279 280 282 284 285 287 292 298 301 303 307 311 316 319 322 321 315 310 307 302 297 293 292 293 294 295 298 300 302 304 306 307 309 312 316 320 322 323 323 323 322 322 322 322 322 323 323 323 324 324 324 324 324 323
243 242 245 246 243 238 236 231 223 217 215 221 229 237 245 251 253 253 257 260 263 271 278 279 279 282 278 273 272 273 273 274 276 277 279 281 282 283 287 293 299 304 310 313 314 315 319 323 320 313 309 306 302 297 295 295 298 299 300 301 302 302 303 303 306 310 316 321 325 326 327 327 327 327 327 327 327 327 326 325 325 325 324 324 323 323 323
249 248 250 252 249 244 239 231 222 216 215 219 226 235 244 249 253 259 263 260 259 266 273 276 279 283 285 285 284 280 278 277 277 276 277 277 278 280 285 291 297 303 308 311 311 314 318 319 315 313 312 310 308 305 302 303 306 308 307 306 305 304 302 303 308 314 320 325 328 330 331 332 332 333 334 333 333 332 330 329 328 327 325 325 324 323 323
250 252 253 255 254 250 241 229 221 218 218 222 226 232 239 244 249 256 263 266 266 266 266 269 274 279 283 286 287 285 284 283 280 275 272 270 272 278 285 290 296 300 301 303 308 313 314 311 312 315 316 316 317 316 313 314 315 312 310 310 311 310 309 310 316 322 326 330 333 334 335 337 337 337 337 336 335 334 333 332 331 329 328 327 326 325 325
252 254 256 257 256 253 246 234 224 219 220 224 227 230 234 240 245 251 258 263 264 261 258 260 266 273 278 281 285 288 291 289 283 275 271 270 274 280 287 293 299 300 296 296 300 304 302 301 306 311 315 320 323 320 318 317 312 306 306 314 322 323 320 320 324 329 332 335 336 336 336 337 337 337 336 335 334 334 333 332 332 331 330 329 328 328 327
252 255 258 259 259 255 246 237 227 221 221 224 226 228 232 237 242 248 254 257 255 252 252 256 262 268 273 278 283 289 292 290 283 277 276 278 282 285 290 295 300 298 292 290 292 296 295 294 297 302 309 318 320 317 314 310 302 298 306 320 325 324 322 323 326 329 330 331 331 331 331 331 331 331 330 330 329 329 329 329 329 329 329 329 329 328 328
252 255 257 257 255 244 228 219 215 215 217 221 223 226 231 236 242 249 255 257 255 252 252 256 261 265 270 274 281 288 290 286 282 282 284 286 286 286 289 294 297 294 291 290 293 297 295 292 294 299 306 315 318 315 311 304 297 298 307 314 314 315 316 319 321 322 322 323 324 324 325 325 324 324 324 323 324 324 323 324 324 324 325 326 326 326 326
253 254 252 250 245 232 216 208 206 205 208 213 218 223 230 237 244 249 253 255 255 253 252 255 258 262 267 272 279 284 283 279 277 283 287 288 287 286 288 292 294 292 292 297 302 303 299 297 298 300 302 307 309 308 304 302 301 303 303 301 303 307 310 312 313 314 315 317 318 319 320 320 319 319 319 319 319 318 318 317 318 319 320 321 321 322 323
251 250 246 239 233 222 211 204 202 203 207 213 220 228 236 244 249 252 253 255 255 253 251 253 257 260 264 270 276 277 276 274 278 284 287 287 286 285 285 288 290 293 298 304 305 303 300 300 301 299 298 298 297 297 297 299 299 297 294 294 297 300 302 305 307 310 313 316 317 318 319 319 318 318 317 316 315 314 313 312 311 311 313 314 315 316 317
240 238 231 224 219 212 204 200 202 207 214 222 231 240 248 253 255 256 256 256 255 253 252 253 255 257 261 267 270 270 270 273 279 282 283 284 283 281 283 287 291 295 299 301 301 300 299 298 296 295 293 290 287 286 288 289 290 290 291 293 296 299 302 307 311 314 317 318 318 318 318 318 317 317 316 315 314 313 313 312 311 310 310 311 311 312 312
225 219 214 211 208 205 202 203 210 218 227 236 246 253 256 257 257 256 256 255 253 250 249 249 251 255 259 263 264 265 268 273 276 277 279 280 277 276 281 287 291 292 292 293 293 294 293 291 290 290 288 284 282 283 284 285 286 287 290 293 298 302 307 311 314 315 316 316 315 315 315 315 315 315 315 314 313 313 313 313 313 313 313 313 314 313 313
209 205 204 204 204 204 206 210 218 228 238 248 255 258 258 258 257 256 254 249 244 242 243 245 249 254 257 259 259 261 263 264 266 270 275 276 274 273 278 283 287 288 288 289 290 291 291 290 288 286 284 284 285 287 288 290 292 294 297 301 304 307 309 310 310 309 309 309 308 308 307 307 307 307 307 307 307 307 308 309 310 310 310 311 311 311 312
196 197 200 204 207 211 214 218 225 236 245 252 258 260 259 257 255 251 245 240 237 238 241 245 248 251 252 252 252 252 249 248 253 265 274 276 275 273 271 274 282 287 289 291 291 290 290 290 290 289 290 291 293 294 296 298 301 304 305 307 308 308 307 306 305 304 303 303 302 301 301 301 301 301 300 300 299 300 300 301 303 304 305 305 306 307 308
194 197 203 208 212 216 219 222 230 239 245 250 258 262 259 254 248 241 235 233 234 238 240 242 243 244 244 242 241 239 237 239 249 263 271 275 276 274 272 272 276 280 284 288 290 290 291 295 297 298 298 298 297 298 301 303 304 305 304 304 303 302 301 299 298 298 298 298 298 299 299 300 300 299 298 298 298 298 298 298 299 300 301 302 303 304 305
201 205 210 214 217 220 222 226 232 238 243 248 255 259 256 249 240 234 230 229 231 234 236 236 236 234 232 232 235 238 244 252 259 265 269 272 272 272 272 269 265 264 267 276 286 292 297 301 302 301 301 301 300 301 302 302 301 300 298 297 296 295 294 294 294 294 295 296 297 299 300 300 300 299 299 298 297 297 298 298 298 298 299 300 301 302 302
211 214 216 219 221 223 225 227 230 233 237 244 251 253 251 243 235 231 230 229 229 229 229 228 229 229 230 235 243 250 256 261 266 268 270 271 272 273 275 275 273 271 271 275 281 286 290 292 293 294 296 297 296 296 297 297 295 294 293 292 291 291 292 292 293 294 296 297 299 301 302 302 302 301 301 299 298 298 298 298 298 299 300 300 301 301 301
216 218 219 220 221 222 223 224 225 227 232 240 247 249 247 240 233 230 229 228 227 226 225 225 228 234 242 249 255 258 260 262 264 265 267 269 271 273 274 274 275 277 278 278 277 278 279 280 282 283 285 285 284 286 288 290 291 290 290 290 290 291 291 292 294 295 297 298 300 301 302 303 303 303 303 301 300 299 299 299 299 300 300 300 300 300 299
217 217 218 218 219 220 221 220 220 222 228 237 245 249 247 243 239 237 236 234 234 233 233 235 239 244 249 253 256 258 259 260 260 260 261 264 265 267 267 268 269 272 273 273 274 275 276 277 277 278 279 280 281 283 286 288 289 289 289 289 289 290 291 292 294 295 297 298 299 301 302 303 304 305 304 304 302 301 301 300 300 300 300 300 300 299 299
214 215 217 217 217 217 217 217 217 221 227 238 247 251 248 244 242 242 242 242 242 241 242 245 248 250 253 258 263 265 265 264 262 260 258 259 260 262 264 265 266 267 269 271 273 275 276 276 277 277 277 279 281 283 285 287 288 289 290 289 290 291 293 294 296 297 298 299 300 301 302 302 303 303 303 302 302 302 302 301 301 301 301 300 300 299 300
213 215 217 217 217 217 217 218 220 224 230 239 248 252 251 247 242 239 240 243 245 246 249 254 258 261 263 267 271 273 273 270 266 262 259 257 257 260 262 264 266 268 270 271 272 272 272 273 274 275 276 278 280 282 284 287 288 290 290 291 293 295 296 297 298 298 298 298 299 300 301 301 302 301 301 301 302 302 302 302 302 302 302 302 301 301 301
216 219 220 220 219 220 221 224 227 231 236 242 246 249 251 249 244 243 245 247 248 251 256 262 265 267 268 270 275 279 280 278 273 268 265 263 261 261 261 262 265 267 268 270 271 271 271 272 274 276 278 280 281 283 285 287 289 291 293 295 298 299 299 299 298 298 298 298 299 300 301 301 301 301 301 301 302 302 303 302 302 303 303 302 302 302 302
218 222 223 222 221 223 227 231 235 239 245 249 250 249 250 250 249 250 253 254 253 254 258 260 262 265 267 271 277 282 285 284 282 279 277 273 268 264 262 263 264 266 267 270 272 274 276 277 278 280 281 282 283 285 286 288 291 294 297 300 302 303 302 301 300 299 298 299 299 299 299 299 299 299 299 300 300 300 301 301 300 300 300 300 300 301 301
218 222 224 224 227 231 235 239 243 248 253 255 255 253 253 252 251 252 256 257 256 256 257 258 259 261 264 268 272 277 280 281 282 283 282 279 274 268 266 266 268 269 271 274 277 278 279 280 280 281 283 284 285 286 287 290 294 298 302 304 305 305 304 303 301 300 299 299 299 299 298 298 298 298 299 299 299 300 300 301 300 300 300 300 300 300 300
218 222 225 228 233 238 241 244 249 253 257 259 259 259 258 256 253 254 256 256 255 256 258 259 260 261 263 265 268 271 272 272 275 279 281 282 279 274 269 266 267 269 272 275 278 280 281 282 283 285 286 287 287 288 290 294 298 302 304 305 305 304 303 301 300 299 299 299 299 299 299 299 299 300 300 301 301 302 302 302 302 302 302 302 301 301 300
217 221 226 231 236 241 246 250 255 259 262 263 263 263 263 260 257 256 257 255 255 257 261 263 263 264 265 266 267 267 266 266 268 272 276 278 279 275 270 266 266 268 271 275 280 283 285 288 289 290 290 290 291 293 296 299 302 303 303 304 303 302 300 299 299 299 299 299 299 299 300 300 301 301 302 302 302 302 302 302 302 302 302 302 301 301 300